Location: ???????
(55.4362°N, 38.1183°E)
Time: 03:34:40
(UTC+00:00)

SL-16 R/B - Pass Details

Date: 17 June 2021
Orbit: 985 x 1007 km, 99.5° (Epoch: 26 July)

Event Time Altitude Azimuth Distance (km) Brightness Sun altitude
Exits shadow 22:12:12 - 145° (SE) 3,634 5.1 -10.6°
Reaches altitude 10° 22:14:30 10° 142° (SE) 2,758 4.5 -10.6°
Maximum altitude 22:20:34 60° 64° (ENE) 1,133 3.1 -10.4°
Drops below altitude 10° 22:26:38 10° 347° (NNW) 2,761 6.0 -10.2°
Sets 22:29:08 0° 344° (NNW) 3,712 6.7 -10.1°
